Flag for Japan Weather past 2 weeks in Nagoya, Japan

Now
55 °F

Clear.


Feels Like: 53 °F
Forecast: 41 / 68 °F
Wind: 9 mph from Southeast

Location: Nagoya Airport

Current Time: Mar 30, 2015 at 11:02:32 PM

Latest Report: Mar 30, 2015 at 10:30 PM


Visibility: 10 mi

Pressure: 30.15 "Hg

Humidity: 77%

Dew point: 48 °F

Location of NagoyaLocation

Historic Weather in Nagoya — Graph

°F

Nagoya temperature yesterday

Maximum temperature yesterday: 54 °F (at 12:00 AM)
Minimum temperature yesterday: 48 °F (at 2:30 AM)
Average temperature yesterday: 52 °F

Past Weeks' High & Low Weather Summary

 TemperatureHumidityPressure
High66 °F (Mar 28, 3:00 PM)100% (Mar 16, 4:30 PM)30.51 "Hg (Mar 16, 4:30 PM)
Low39 °F (Mar 27, 5:00 AM)24% (Mar 26, 11:30 AM)29.68 "Hg (Mar 19, 12:30 PM)
Average52 °F70%30.09 "Hg
* Reported Mar 15 10:00 PM — Mar 30 10:00 PM, Nagoya, Weather by CustomWeather, © 2015

Note: Actual official high and low records may vary slightly from our data, if they occured in-between our weather recording intervals... More about our weather records

Advertising

Nagoya weather history for previous 24 hours

 ConditionsComfort  
Time TempWeatherWind HumidityBarometerVisibility
10:00 PM
Mon, Mar 30
55 °FClear.8 mph77%30.15 "Hg10 mi
9:30 PM57 °FClear.8 mph67%30.12 "Hg10 mi
9:00 PM57 °FClear.7 mph72%30.12 "Hg10 mi
8:30 PM57 °FClear.7 mph67%30.12 "Hg10 mi
8:00 PM59 °FClear.7 mph55%30.12 "Hg10 mi
7:30 PM59 °FClear.7 mph51%30.12 "Hg10 mi
7:00 PM59 °FClear.7 mph51%30.09 "Hg10 mi
6:30 PM59 °FClear.9 mph59%30.09 "Hg10 mi
6:00 PM63 °FSunny.7 mph45%30.07 "Hg10 mi
5:30 PM63 °FSunny.5 mph45%30.07 "Hg10 mi
5:00 PM59 °FSunny.8 mph68%30.07 "Hg10 mi
4:30 PM63 °FSunny.7 mph59%30.07 "Hg10 mi
4:00 PM66 °FSunny.7 mph37%30.04 "Hg10 mi
3:30 PM66 °FSunny.7 mph35%30.04 "Hg10 mi
3:00 PM66 °FSunny.8 mph32%30.04 "Hg10 mi
2:30 PM64 °FPassing clouds.6 mph37%30.07 "HgN/A
2:00 PM63 °FSunny.5 mph49%30.07 "Hg10 mi
1:30 PM61 °FSunny.7 mph59%30.07 "Hg10 mi
1:00 PM59 °FSunny.3 mph55%30.07 "Hg10 mi
12:30 PM59 °FSunny.5 mph51%30.09 "Hg10 mi
11:30 AM59 °FPassing clouds.5 mph55%30.09 "HgN/A
11:00 AM59 °FSunny.5 mph48%30.09 "Hg10 mi
10:30 AM57 °FSunny.3 mph59%30.12 "Hg10 mi
10:00 AM57 °FSunny.7 mph55%30.12 "Hg10 mi
9:30 AM57 °FSunny.10 mph59%30.12 "Hg10 mi
9:00 AM55 °FSunny.12 mph67%30.12 "Hg10 mi
8:30 AM54 °FSunny.18 mph67%30.09 "Hg10 mi
8:00 AM54 °FSunny.16 mph67%30.07 "Hg10 mi
7:30 AM52 °FClear.16 mph77%30.07 "Hg6 mi
7:00 AM52 °FClear.17 mph77%30.07 "Hg6 mi
6:30 AM52 °FClear.21 mph77%30.07 "Hg6 mi
6:00 AM52 °FPartly sunny.18 mph77%30.07 "HgN/A
5:30 AM52 °FPassing clouds.17 mph77%30.04 "HgN/A
5:00 AM52 °FPassing clouds.18 mph77%30.04 "HgN/A
4:30 AM54 °FPassing clouds.21 mph72%30.04 "HgN/A
4:00 AM54 °FPassing clouds.20 mph72%30.01 "HgN/A
3:30 AM54 °FPassing clouds.20 mph72%30.01 "HgN/A
3:00 AM54 °FPassing clouds.22 mph67%30.01 "HgN/A
2:30 AM52 °FPassing clouds.22 mph77%30.01 "HgN/A
2:00 AM54 °FPassing clouds.18 mph72%29.98 "HgN/A
1:30 AM54 °FPassing clouds.18 mph77%29.98 "HgN/A
1:00 AM52 °FPassing clouds.18 mph82%29.98 "HgN/A
12:30 AM54 °FPassing clouds.18 mph77%29.98 "HgN/A
12:00 AM54 °FPassing clouds.17 mph82%29.98 "HgN/A
11:30 PM
Sun, Mar 29
54 °FPassing clouds.13 mph82%29.98 "HgN/A
11:00 PM54 °FPassing clouds.14 mph82%29.98 "HgN/A
Weather by CustomWeather, © 2015

See weather overviewHow to use our weather pages